Dewpoint
74 73 72 74 74 72 68 64 53 54 52 50 50 52 49 58 60 56 55 59 55 60 62 62 60 59 59 57 57 59 64 54 55 51 50 59 72 71 72 72 73 74 74 75 76 75 75 76 75 75 75 75 75 75 75 75 75 75 75 75 75 75 75 75 76 76 75 75 75 75 75 75 76 75 76 76 76 75 75 76 77 76 76 75 75 75 75 76 75 75 76 76 76 76 76 76 76
73 73 73 74 73 68 64 65 54 50 49 47 49 53 52 55 56 55 56 57 58 59 59 60 59 62 63 63 63 63 62 66 66 64 68 70 72 72 72 73 73 73 74 75 75 75 75 76 75 75 75 75 75 75 75 75 75 74 75 75 75 75 75 75 75 75 75 75 74 74 75 74 73 75 75 76 76 74 75 76 76 76 76 75 75 75 75 75 76 75 76 76 75 75 75 76 76
73 74 74 73 70 68 65 61 50 48 46 45 49 53 56 55 56 57 59 59 59 59 59 59 61 62 61 62 60 61 57 67 67 68 68 71 69 71 73 73 74 74 75 75 75 75 75 75 75 75 75 75 75 76 75 75 74 75 75 76 76 75 75 75 75 75 75 74 74 74 74 73 72 73 74 74 73 73 75 76 76 76 76 76 76 75 75 76 75 76 75 74 75 75 75 75 76
74 74 71 70 64 64 58 55 52 49 47 47 47 52 56 56 56 58 60 61 60 61 58 57 59 61 59 59 61 65 64 65 67 68 68 69 70 72 73 74 75 74 75 75 75 75 74 75 76 75 76 75 76 75 76 75 75 75 75 75 75 75 75 75 74 75 74 74 73 74 74 73 72 72 73 74 73 74 75 76 75 76 76 76 75 75 74 75 76 76 76 75 75 75 75 75 75
73 74 73 69 62 58 56 54 54 52 48 50 48 52 57 59 58 59 60 61 63 61 61 59 59 61 62 62 66 59 59 67 68 68 69 71 72 72 73 74 74 74 74 75 75 74 74 75 75 75 75 75 75 76 75 75 75 75 75 75 75 75 75 75 74 74 74 74 73 73 74 74 73 73 75 74 74 74 75 75 75 76 76 75 75 74 74 75 75 75 75 75 76 75 75 75 75
75 74 75 72 63 63 55 52 53 53 56 58 53 54 57 61 60 60 60 61 62 62 62 59 59 59 61 62 64 63 67 64 67 69 69 71 72 73 74 74 74 74 74 74 74 74 74 75 75 75 75 75 75 75 75 75 75 75 74 74 74 74 75 74 74 74 73 74 74 74 73 73 73 73 73 73 73 74 75 75 76 76 75 75 75 75 75 75 75 75 75 76 76 75 75 75 75
72 70 68 65 62 61 52 51 54 56 58 61 58 59 60 61 60 61 61 60 58 58 61 61 60 61 60 63 65 67 68 68 68 69 71 72 73 73 74 74 73 73 73 74 74 74 75 75 75 75 75 75 75 75 75 75 76 75 74 74 74 74 75 74 74 74 74 73 74 74 73 72 73 74 74 73 73 73 74 75 75 76 76 75 75 75 75 75 75 75 75 75 75 75 74 75 75
73 67 65 57 54 56 53 53 53 57 58 63 63 63 62 61 62 62 61 61 57 56 58 60 60 61 61 65 61 67 70 70 70 71 72 72 73 73 73 73 73 73 73 73 74 74 75 75 75 75 75 75 75 75 75 75 75 74 74 74 74 74 74 74 74 73 72 73 73 74 74 73 73 73 73 73 74 73 73 74 75 76 75 75 75 76 76 75 74 75 75 75 75 75 74 75 75
69 66 65 56 52 52 52 53 54 60 60 62 61 63 64 63 63 62 61 62 61 57 58 59 60 57 62 64 65 68 70 70 71 72 72 72 72 73 73 72 72 73 73 73 73 74 74 74 75 75 75 75 74 74 75 74 74 74 74 74 74 74 73 73 74 74 73 74 73 73 73 73 72 73 73 73 73 74 74 74 75 75 76 75 76 75 75 75 75 75 75 75 75 75 75 75 75
66 64 58 54 52 48 49 50 50 54 59 61 61 60 62 63 63 63 62 62 61 57 59 63 62 60 63 62 64 65 69 71 71 71 72 72 72 72 72 72 72 73 73 73 73 74 74 74 74 75 75 74 74 74 75 74 74 74 74 74 74 73 73 73 74 73 73 73 72 73 73 72 71 72 73 73 73 73 74 74 75 75 75 76 76 74 75 75 75 75 75 76 76 75 75 75 75
60 62 60 52 48 46 46 49 54 57 60 61 62 63 64 65 64 63 63 63 60 58 61 62 62 62 63 63 65 69 70 70 70 70 71 71 72 72 72 72 72 72 72 73 74 74 74 74 74 75 74 74 74 74 75 74 74 74 74 74 74 73 73 73 73 73 73 72 72 73 73 73 73 73 74 73 74 74 74 74 74 75 76 76 75 75 75 75 75 75 75 75 75 75 74 75 74
59 58 55 49 48 46 48 49 52 57 61 62 61 64 67 65 65 62 61 58 58 59 59 60 60 63 62 63 64 69 70 70 70 70 71 71 71 72 72 72 72 72 72 73 74 73 73 74 74 74 75 74 74 74 74 74 74 74 74 73 72 73 72 73 74 73 73 72 73 72 73 72 72 73 73 73 73 73 73 74 74 75 75 75 75 75 75 76 75 75 76 76 75 75 75 75 75
61 58 53 50 49 52 52 53 52 57 59 59 61 63 67 65 64 63 63 62 60 58 58 60 63 62 60 63 66 69 68 69 70 70 70 70 71 72 72 72 72 72 73 73 73 73 74 74 75 74 74 74 73 73 73 74 74 74 74 73 73 73 73 73 73 73 72 72 73 73 72 72 73 73 73 73 73 73 73 74 74 76 75 75 75 76 76 76 75 75 75 75 75 75 75 75 74
61 59 56 51 53 52 53 53 56 55 56 61 63 64 65 63 65 65 64 58 58 58 60 62 62 64 63 64 65 67 68 69 70 70 70 70 72 72 71 72 72 72 73 73 73 73 74 74 74 74 74 74 74 74 74 74 74 74 73 73 73 73 74 74 73 74 73 72 74 73 73 73 73 73 73 73 73 73 74 74 75 75 75 76 76 76 76 75 75 75 75 75 75 74 75 75 74
61 61 55 52 51 51 53 50 52 53 52 60 63 62 65 66 66 65 62 56 56 59 62 64 63 60 59 62 62 65 68 69 70 70 70 71 71 71 71 72 72 72 72 73 73 73 73 73 73 74 74 73 73 72 73 74 73 73 73 73 73 73 74 74 74 74 74 73 74 73 74 73 73 73 74 73 73 74 74 74 75 75 76 76 76 76 76 76 75 75 75 75 75 75 75 75 74
63 59 55 51 50 51 52 52 55 51 51 58 60 63 64 65 67 62 63 63 60 61 61 60 63 58 61 62 62 66 69 69 70 70 70 70 71 71 71 71 72 72 72 72 72 73 73 73 73 73 73 73 72 72 72 73 73 73 73 73 73 73 74 74 74 74 74 74 74 74 74 74 73 72 73 73 74 74 74 74 75 76 76 75 76 76 76 76 76 76 76 76 75 75 75 74 74
62 60 54 48 48 51 51 52 51 47 51 57 60 62 63 62 65 66 67 63 59 60 60 61 62 63 63 63 65 68 69 70 71 70 70 70 70 70 70 71 71 71 72 72 72 72 73 73 73 73 73 73 73 72 72 72 73 73 73 72 73 73 74 73 73 74 74 74 75 74 74 73 72 72 74 72 73 73 74 75 75 76 75 75 76 76 76 76 76 76 76 75 75 74 74 74 73
59 56 51 49 51 51 54 52 52 51 54 55 58 61 63 60 61 64 63 61 61 59 58 62 64 64 64 66 67 68 69 69 69 69 69 69 69 69 69 70 70 70 71 71 72 72 73 73 73 73 73 73 73 73 73 73 73 73 71 73 72 73 74 74 74 74 74 74 74 74 73 72 72 72 72 72 73 73 73 75 76 76 76 76 76 76 76 76 76 76 75 76 75 76 76 75 75
57 53 51 48 50 52 56 56 55 53 52 55 57 61 63 60 63 63 59 58 59 58 60 63 63 64 65 66 67 68 69 69 69 69 69 68 68 68 68 69 69 70 70 71 71 72 73 73 73 72 72 72 72 73 73 73 72 72 72 71 72 72 73 74 74 74 73 73 72 72 73 73 72 72 72 73 73 72 75 76 76 76 76 76 76 76 76 76 77 76 76 76 77 77 75 75 75
57 53 50 50 52 53 58 59 57 57 57 55 60 64 62 63 65 68 60 59 59 57 60 62 62 63 65 66 67 67 68 68 68 68 68 69 68 68 68 68 69 69 70 71 71 72 72 73 73 72 72 72 72 72 72 72 72 72 71 71 72 72 73 73 73 73 73 73 72 72 72 72 72 72 73 73 72 73 75 75 76 76 76 76 76 76 76 76 76 76 76 78 77 76 75 75 75
55 53 50 50 52 50 52 59 59 60 60 59 62 64 62 64 65 63 60 56 58 59 62 62 62 63 64 66 66 67 67 68 68 68 68 68 68 68 68 68 68 69 70 71 71 71 72 73 73 72 72 72 72 73 72 72 72 72 71 71 71 73 73 73 72 72 73 73 73 73 72 72 72 72 71 71 71 74 74 74 75 75 76 77 77 75 75 75 75 75 75 76 75 76 75 75 75
54 53 51 49 56 50 56 60 61 62 64 62 62 59 59 66 66 63 59 55 55 57 60 63 64 64 65 65 66 67 67 67 67 67 67 68 68 68 68 68 69 69 71 70 71 71 72 72 72 72 72 72 72 72 72 73 73 72 71 71 72 73 73 72 72 72 72 73 72 72 72 72 72 72 71 71 71 74 74 74 74 75 75 75 75 74 74 74 74 74 74 75 75 75 75 75 75
45 48 52 52 57 53 62 62 62 64 62 61 59 61 62 63 61 64 62 58 59 63 61 64 64 64 65 66 66 66 67 67 67 67 67 67 68 68 68 68 69 69 69 70 71 71 71 72 72 72 71 72 72 72 73 72 72 73 72 73 73 73 72 72 72 72 72 72 73 73 71 71 71 72 72 72 73 74 73 74 74 74 74 74 74 74 73 74 74 74 74 74 74 74 74 74 74
41 40 52 52 57 57 63 63 63 63 62 61 62 62 58 59 56 63 62 63 65 66 62 64 64 64 65 65 66 66 66 66 66 67 67 67 67 68 68 68 69 69 69 70 70 71 71 71 72 72 71 72 72 72 72 72 72 72 73 73 73 73 73 72 72 72 72 72 73 73 73 72 72 72 72 73 73 74 73 73 73 74 74 73 74 73 73 73 73 74 74 73 73 73 73 73 74
40 37 56 59 62 63 63 62 61 62 62 63 62 58 59 60 60 60 60 61 64 67 64 64 64 64 65 65 65 66 66 66 66 66 67 67 67 68 68 68 69 69 69 70 70 71 71 72 72 71 71 72 72 73 72 72 72 73 73 73 72 73 72 72 72 72 72 73 73 73 73 72 72 72 73 73 73 73 73 73 73 73 73 73 74 73 74 73 73 73 73 73 73 73 73 73 73
39 43 60 62 61 62 62 61 61 62 62 62 59 58 60 62 63 59 60 61 65 66 62 64 64 64 64 65 65 66 66 66 66 66 66 67 67 67 67 68 69 69 69 70 70 71 71 71 71 71 71 71 72 72 72 72 73 73 73 72 73 74 72 72 73 72 73 73 72 72 73 72 72 72 73 73 73 73 73 73 73 73 73 73 73 73 74 73 73 73 73 72 72 72 72 72 74
54 61 61 61 61 61 62 60 60 62 62 61 58 58 59 62 57 52 58 61 67 64 62 64 64 64 64 64 65 65 66 66 66 66 66 66 67 67 67 67 68 69 69 70 70 71 71 71 71 71 71 71 72 72 72 72 73 73 73 72 73 72 73 73 73 72 73 73 73 73 73 73 73 73 73 73 73 72 72 72 72 72 72 72 73 73 73 74 73 73 73 72 72 72 72 71 72
60 61 60 61 61 62 61 61 60 60 58 61 59 58 60 61 57 54 57 60 64 62 60 63 63 63 64 64 65 65 65 65 66 65 65 65 66 66 67 67 68 68 69 69 70 71 71 71 71 71 71 71 72 71 72 72 73 73 73 73 72 72 73 72 72 72 73 73 73 73 73 74 74 73 74 73 73 72 72 72 71 71 71 71 72 72 72 73 73 73 73 73 72 72 72 71 71
59 57 54 58 58 57 60 59 60 60 59 61 61 56 54 57 56 58 60 64 63 60 59 63 63 63 63 64 64 64 64 65 65 65 65 65 66 66 66 67 68 68 69 69 70 71 71 70 70 71 71 71 71 71 71 71 72 73 72 73 72 73 73 72 72 72 72 73 73 73 73 74 75 73 73 74 75 72 72 72 72 74 72 71 71 71 70 72 72 71 71 72 72 72 71 72 72
55 60 58 53 52 51 56 62 61 59 60 62 59 46 49 54 57 59 62 63 62 59 58 61 62 63 63 63 63 64 64 64 65 65 65 65 65 66 66 67 68 69 68 69 70 70 71 71 71 71 71 71 71 71 71 72 72 73 73 72 73 73 73 72 72 72 73 73 73 73 73 74 74 73 73 74 73 72 72 72 71 72 73 73 72 73 73 72 71 70 69 71 73 75 72 70 69
52 56 54 51 45 44 54 59 60 57 61 61 54 46 47 49 51 57 61 64 60 58 58 58 59 61 62 62 63 63 63 64 64 65 65 65 65 65 66 67 69 70 71 71 70 70 71 70 71 71 71 71 70 71 72 72 72 72 72 72 72 72 72 72 72 72 73 73 73 73 73 74 73 73 74 73 73 72 72 71 72 72 74 74 73 74 74 74 72 71 72 72 70 70 70 72 70
45 45 44 47 46 46 52 59 59 55 60 63 54 48 49 50 51 57 61 64 61 59 58 58 58 58 59 61 62 62 62 63 64 64 64 65 65 65 68 70 70 69 70 70 70 70 70 70 71 70 71 70 71 71 71 72 72 72 72 73 72 72 73 73 72 72 72 73 73 73 74 74 73 74 73 73 72 71 71 71 72 73 74 75 75 74 75 73 72 72 74 70 69 67 70 68 69
23 41 39 42 46 48 49 58 60 59 60 60 55 49 51 47 53 60 64 64 60 59 58 58 60 60 58 59 60 61 61 61 62 63 64 64 64 65 68 69 69 70 71 71 71 70 70 70 71 71 71 70 71 71 71 71 72 72 72 72 72 72 72 73 73 72 73 73 73 73 73 74 73 74 73 72 72 71 71 71 72 72 74 74 74 73 73 72 72 69 71 74 69 68 69 67 68
19 21 31 39 42 45 42 50 59 60 59 57 59 54 53 49 53 59 63 64 60 59 58 58 60 60 60 60 60 59 59 60 60 61 62 63 64 65 67 69 70 71 71 72 72 71 70 70 71 71 71 70 71 71 71 71 72 71 72 72 72 72 72 73 73 72 72 73 73 73 73 74 74 73 73 72 72 71 71 71 72 72 73 74 74 73 73 73 72 71 70 72 72 70 69 67 67
15 21 23 25 34 46 40 43 49 59 59 56 57 57 57 57 58 59 62 64 61 59 58 58 59 60 60 60 60 60 59 59 59 60 61 62 64 65 67 69 70 70 71 71 71 71 70 71 71 71 71 71 71 71 71 71 71 71 71 71 72 72 72 73 73 73 72 72 72 72 73 74 75 73 73 73 72 73 72 72 72 73 75 74 73 72 73 74 72 71 70 71 73 71 69 69 69
16 23 27 33 23 20 39 48 53 59 57 55 57 56 56 57 57 58 61 64 62 61 61 60 61 60 61 61 61 61 61 60 61 62 62 62 65 65 67 68 69 68 69 70 70 69 70 71 71 71 71 71 71 71 71 71 71 71 70 71 71 71 72 72 72 72 72 72 72 72 73 74 74 73 73 72 72 73 72 72 73 74 74 73 71 70 70 72 71 71 72 74 73 72 72 73 71
21 29 26 24 26 27 41 48 52 59 55 55 56 56 56 56 57 57 60 63 62 61 60 60 60 61 61 61 61 61 61 61 63 63 64 63 66 66 67 67 68 68 69 70 68 69 70 70 70 70 70 71 71 70 70 70 70 70 70 70 69 71 71 72 72 72 72 72 72 72 74 74 73 74 74 73 72 74 73 73 73 74 74 73 72 71 72 72 73 74 74 74 74 70 67 66 66
11 16 15 17 25 17 35 41 52 59 54 49 54 55 56 56 57 57 61 63 62 61 60 60 60 60 61 61 62 62 62 64 65 64 66 64 65 67 67 67 69 68 69 69 68 69 69 70 70 70 70 71 70 70 70 70 70 70 69 69 69 70 71 71 71 71 72 72 72 73 74 74 73 73 74 73 73 73 72 73 73 73 74 73 73 74 74 77 73 72 72 70 71 69 67 66 64
11 10 18 18 16 28 35 50 54 58 54 50 50 54 54 54 54 57 60 61 61 61 61 60 61 61 61 61 61 62 62 63 64 64 66 65 66 67 66 67 68 68 69 69 69 70 70 70 70 70 70 70 70 70 70 70 70 70 70 70 70 70 71 72 71 71 72 72 72 73 74 74 73 73 74 73 73 73 72 72 73 73 73 75 74 72 72 74 73 73 72 68 67 69 72 71 67
10 11 15 12 26 18 16 35 55 56 52 47 50 50 50 53 55 57 60 61 62 63 62 62 62 62 63 63 64 63 62 63 63 64 65 66 67 66 66 67 67 68 69 69 68 68 69 70 70 70 70 70 70 71 71 70 71 71 71 71 71 71 70 72 71 71 72 72 71 73 74 74 73 72 73 73 73 73 72 72 72 73 73 75 73 73 73 74 73 72 72 73 69 64 67 68 71
14 11 12 13 14 20 19 32 52 52 52 53 50 45 45 49 53 54 58 60 61 60 61 61 61 63 64 64 64 64 64 64 63 64 66 66 66 66 66 67 68 68 68 69 68 68 69 69 69 70 70 70 70 71 71 71 71 71 72 72 72 71 71 71 70 70 71 71 71 72 74 74 73 73 73 74 74 72 72 72 72 72 72 73 74 74 74 74 73 72 73 75 70 67 65 68 69
12 11 12 12 12 22 48 50 50 47 46 49 47 36 38 45 49 53 55 56 58 59 59 59 60 60 62 63 63 63 63 66 64 64 65 66 67 67 68 68 68 68 69 69 69 69 69 69 69 70 70 70 70 71 71 71 71 70 70 69 69 69 68 69 69 69 69 70 70 72 73 73 73 73 74 74 74 73 72 72 72 72 72 74 75 75 75 75 74 73 73 72 71 70 68 67 66
12 12 10 12 11 29 50 48 45 41 40 45 48 37 35 42 48 51 54 56 56 58 58 59 59 60 61 62 64 64 64 66 66 66 66 66 67 67 67 67 67 68 70 70 69 69 70 70 70 70 70 70 70 71 71 72 71 70 70 69 69 68 68 69 70 69 69 70 70 71 73 73 74 73 73 74 74 73 72 72 73 73 73 73 76 76 75 75 73 72 74 72 71 74 70 69 67
9 8 7 13 34 44 49 48 44 42 47 49 48 42 37 38 41 51 53 55 55 56 57 58 58 59 61 61 63 64 64 65 66 65 65 66 67 67 67 68 69 69 70 71 70 69 70 69 70 70 70 71 71 71 71 71 70 70 70 70 70 69 68 69 69 69 69 70 70 70 72 72 73 74 73 74 74 74 73 72 73 73 74 74 75 76 75 74 73 75 75 74 75 73 70 69 69
11 16 27 26 38 46 49 46 43 44 42 40 44 46 39 40 43 50 54 53 53 54 56 57 58 58 59 61 63 64 64 64 66 65 66 66 66 67 68 68 70 70 70 70 69 69 70 70 70 70 71 71 71 71 71 71 71 70 70 69 69 70 69 69 70 70 69 70 69 70 71 72 73 74 74 73 73 73 74 72 72 72 73 73 76 76 76 74 73 75 75 73 73 74 73 71 70
17 35 44 45 46 46 44 42 42 40 35 34 43 45 38 39 41 47 50 52 52 54 55 56 58 58 59 60 62 64 64 64 66 66 66 66 67 67 68 69 70 69 70 71 70 69 69 69 70 70 70 71 71 71 71 71 71 71 70 70 69 69 69 70 70 69 69 69 68 69 70 71 71 73 73 73 73 73 75 74 72 72 72 73 75 76 75 74 74 74 74 73 74 75 74 71 70
21 32 37 36 37 39 44 41 41 39 33 35 40 44 40 34 39 46 48 50 52 53 54 56 57 59 59 59 62 63 63 64 65 66 67 67 67 68 69 68 69 70 70 70 69 69 70 70 70 70 69 70 71 71 71 71 70 70 70 70 69 69 69 69 69 68 68 68 68 68 69 70 71 72 72 72 72 72 72 74 73 72 72 74 76 76 75 74 74 74 74 75 74 74 73 76 75
15 24 33 31 31 36 34 37 38 33 32 35 37 42 41 35 39 45 48 51 52 53 52 54 56 58 58 60 63 63 63 64 65 66 66 67 67 66 68 68 68 69 69 69 69 69 70 70 70 69 69 70 70 71 71 70 70 70 70 69 69 69 69 69 68 68 68 68 67 67 69 70 70 70 71 71 71 71 72 72 73 73 74 74 75 76 75 74 75 74 75 74 73 74 74 73 71
21 28 30 29 26 31 29 31 31 31 31 33 42 42 40 39 38 45 47 50 54 55 55 54 57 58 59 60 62 64 64 64 65 65 65 65 66 67 67 67 68 68 68 69 69 69 69 69 70 69 68 70 70 71 71 71 70 70 69 69 69 69 69 69 69 68 68 68 68 67 68 69 69 70 70 70 70 70 71 71 71 72 73 74 75 75 74 74 75 74 74 74 73 74 74 72 71
12 14 22 17 16 20 19 26 29 27 30 38 41 43 37 41 42 48 50 52 54 57 58 59 59 58 59 60 61 63 64 65 64 65 65 65 66 67 67 68 67 68 68 69 69 69 69 69 68 67 69 70 70 70 71 70 70 70 69 69 69 69 69 69 69 68 68 68 68 67 68 68 68 68 69 69 70 70 71 71 71 71 72 73 75 75 74 74 75 74 74 74 73 74 74 74 73
15 17 19 20 22 17 14 22 18 21 28 38 43 36 34 36 41 48 50 52 56 57 59 60 60 59 60 61 61 62 64 65 64 64 65 66 67 68 68 68 68 68 68 69 69 69 69 69 69 68 68 68 69 70 70 70 70 70 69 69 69 69 68 69 69 69 69 68 68 67 68 67 67 68 68 69 71 70 70 71 71 71 72 73 75 75 74 74 75 75 75 74 75 74 74 74 73
17 22 18 14 19 28 15 25 25 30 34 34 38 37 40 41 46 52 55 56 58 61 60 61 60 60 60 61 61 62 64 65 65 64 65 67 68 69 69 68 68 68 68 68 69 69 68 68 68 68 68 68 69 70 70 70 70 70 69 69 68 69 70 69 70 71 69 69 68 68 68 68 68 68 69 70 69 70 70 70 71 71 72 72 74 74 74 73 74 74 75 75 74 75 74 74 74
16 16 18 15 20 33 37 41 36 37 32 32 39 41 43 46 46 53 53 55 55 59 59 59 60 60 59 60 60 61 63 64 65 65 66 67 68 68 68 68 68 67 68 68 68 68 68 67 67 68 69 69 69 70 70 70 70 70 69 68 68 68 69 68 68 69 68 69 69 68 68 67 68 69 68 69 69 71 71 70 70 71 72 72 73 74 73 73 74 74 74 74 74 75 75 74 74
15 16 14 24 25 26 21 19 29 31 26 29 40 40 41 36 36 48 51 52 52 55 59 58 59 59 59 59 60 61 62 64 65 66 66 67 69 68 68 68 67 67 67 67 67 68 68 67 67 68 69 68 68 70 70 70 70 69 69 69 68 68 68 68 68 68 68 69 69 69 68 68 68 68 69 68 69 70 71 72 71 71 71 72 73 73 73 73 74 74 74 74 74 74 75 75 75
18 17 20 19 26 19 24 27 24 24 25 30 36 40 42 40 39 45 47 50 51 52 57 58 58 59 59 59 59 60 61 63 64 65 66 67 67 69 68 68 68 67 67 67 67 67 67 67 67 68 69 69 69 69 70 70 70 69 69 69 68 68 68 69 68 69 69 68 68 68 68 68 68 69 71 70 70 69 70 71 72 71 72 72 73 73 74 74 74 74 74 73 74 74 74 74 74
24 22 20 27 25 26 21 22 26 30 28 27 30 37 34 43 44 46 46 50 51 52 57 59 58 58 59 59 59 59 60 61 63 64 65 67 67 67 67 67 67 67 67 68 67 67 67 67 68 68 69 69 69 69 70 69 69 69 69 69 69 69 69 69 69 68 67 67 67 67 68 68 68 69 69 69 70 69 70 70 71 70 70 71 72 72 73 73 74 74 73 73 73 74 73 73 73
23 18 20 20 24 29 24 28 26 24 31 29 28 27 34 39 45 48 48 49 51 54 58 59 59 60 59 59 59 59 60 60 62 63 64 66 67 67 67 67 67 68 68 68 68 67 67 68 67 68 69 69 69 69 69 69 69 69 69 68 68 69 68 68 69 68 68 67 67 68 67 68 69 69 69 69 69 70 70 70 70 71 70 72 72 72 73 73 74 74 74 74 74 74 73 73 73
19 18 20 19 20 23 22 24 28 34 31 29 27 27 34 39 52 50 49 51 52 55 58 59 59 60 60 61 61 60 60 61 62 63 64 65 67 67 67 67 68 68 67 67 67 67 67 67 68 69 69 69 69 69 69 69 69 69 69 69 68 69 69 69 68 68 69 68 67 68 68 68 68 69 69 69 69 69 70 70 70 71 71 71 72 73 72 72 73 73 73 72 73 74 73 73 73